Notices

What's New in latest Release from April 7th, 2021:

- Updated Glossary, including Speed of Maximum Gust, and Total Hourly Precipitation

- Updated national and regional climate services offices contacts and prices information

- Addition of station inventory lists for 1981-2010, 1971-2000, and 1961-1990 Normals.

If you haven't already, please take our survey and provide feedback about our website: https://eccc.sondage-survey.ca/f/LanguageSelection.aspx?s=442ca660-fcf1-47c0-95a9-59707d6fd709

Hourly Data Report for November 30, 2020

VICTORIA UNIVERSITY CS
BRITISH COLUMBIA
Current Station Operator: ECCC - MSC

48°27'25.200" N
123°18'16.600" W
60.10 m
1018598
71783
WYJ

Download Data

Hourly Data (November 2020)
Hourly Data Report for November 30, 2020
TIME
LST
Temp Definition
°C
Dew Point Definition
°C
Rel Hum Definition
%
Precip. Amount Definition
mm

Wind Dir Definition
10's deg

Wind Spd Definition
km/h
Visibility Definition
km
Stn Press Definition
kPa
Hmdx Definition


Wind Chill Definition


Weather Definition


00:00 7.1 5.5 90 0.0 15 6   100.19     LegendNANA
01:00 6.2 5.3 94 0.0 33 1   100.02     LegendNANA
02:00 6.4 5.4 94 0.0 30 8   100.06     LegendNANA
03:00 6.2 6.2 100 2.4 11 1   99.98     LegendNANA
04:00 7.2 7.1 100 0.9 13 3   99.87     LegendNANA
05:00 7.1 6.9 99 1.4 14 4   99.94     LegendNANA
06:00 7.3 7.1 99 0.4 16 7   99.96     LegendNANA
07:00 7.2 6.5 96 2.6 21 14   100.11     LegendNANA
08:00 7.7 5.5 86 0.0 24 19   100.24     LegendNANA
09:00 8.4 4.6 77 0.0 26 21   100.41     LegendNANA
10:00 9.1 5.3 77 0.0 26 13   100.76     LegendNANA
11:00 9.5 4.2 70 0.0 25 24   100.97     LegendNANA
12:00 9.9 4.0 67 0.0 25 18   101.12     LegendNANA
13:00 10.1 3.7 64 0.0 26 16   101.28     LegendNANA
14:00 9.8 2.9 62 0.0 25 18   101.41     LegendNANA
15:00 9.1 3.3 67 0.0 25 16   101.61     LegendNANA
16:00 8.2 3.1 70 0.0 25 17   101.80     LegendNANA
17:00 7.3 2.2 70 0.0 25 10   101.89     LegendNANA
18:00 7.0 2.8 74 0.0 25 10   101.99     LegendNANA
19:00 6.6 2.6 76 0.0 26 7   102.13     LegendNANA
20:00 6.7 2.1 72 0.0 26 9   102.19     LegendNANA
21:00 5.3 1.6 77 0.0 26 5   102.33     LegendNANA
22:00 3.8 1.9 88 0.0 21 3   102.42     LegendNANA
23:00 3.4 3.0 98 0.0 24 3   102.51     LegendNANA

Notes on Data Quality.

Legend

  • E = Estimated
  • M = Missing
  • NA = Not Available*
  • [empty] = Indicates an unobserved value
Date modified: